496  
ASUS41 KBOX 222310  
RWRBOX  
 
REGIONAL WEATHER ROUNDUP  
NATIONAL WEATHER SERVICE BOSTON/NORTON MA  
600 PM EST FRI FEB 22 2019  
 
NOTE: "FAIR" INDICATES FEW OR NO CLOUDS BELOW 12,000 FEET WITH NO  
SIGNIFICANT WEATHER AND/OR S TO VISIBILITY
.  
 
MAZALL-230000-  
EASTERN MASSACHUSETTS  
 
CITY SKY/WX TMP DP RH WIND PRES REMARKS
 
BOSTON MOCLDY 43 21 41 NW8 30.33R  
BEVERLY FAIR 40 19 43 NW5 30.32R  
LAWRENCE FAIR 39 20 46 NW7 30.35R  
BEDFORD MOCLDY 38 21 50 NW6 30.33R  
BLUE HILL N/A 35 22 58 NW9 30.30R WCI 28  
NORWOOD FAIR 42 20 41 NW3 30.33R  
MARSHFIELD FAIR 36 28 75 CALM 30.33R  
PLYMOUTH FAIR 33 24 69 CALM 30.33R  
TAUNTON FAIR 35 21 56 CALM 30.33R  
NEW BEDFORD FAIR 37 29 72 E3 30.32R  

 
 
MAZALL-230000-  
CAPE COD AND THE ISLANDS  
 
CITY SKY/WX TMP DP RH WIND PRES REMARKS
 
FALMOUTH FAIR 34 21 60 CALM 30.34R  
HYANNIS FAIR 34 21 59 CALM 30.32R  
CHATHAM FAIR 33 24 69 CALM 30.34R  
PROVINCETOWN FAIR 32 27 81 S3 30.34R  
NANTUCKET FAIR 33 24 69 CALM 30.34R  
MARTHAS VNYRD FAIR 33 26 75 S3 30.34R  

 
 
MAZALL-230000-  
CENTRAL AND WESTERN MASSACHUSETTS  
 
CITY SKY/WX TMP DP RH WIND PRES REMARKS
 
WORCESTER FAIR 35 20 54 NW7 30.31R WCI 29  
FITCHBURG FAIR 35 20 54 NW10 30.35R WCI 27  
ORANGE FAIR 36 20 52 NW6 30.36R WCI 31  
SPRINGFIELD MOCLDY 36 22 56 NW9 30.35R WCI 29  
WESTFIELD FAIR 36 20 52 NW14 30.36R WCI 27  
NORTH ADAMS FAIR 32 21 64 W9 30.38R WCI 24  
PITTSFIELD FAIR 31 18 58 NW12 30.34R WCI 22  

 
 
RIZALL-230000-  
RHODE ISLAND  
 
CITY SKY/WX TMP DP RH WIND PRES REMARKS
 
PROVIDENCE CLOUDY 40 21 46 NW5 30.33R  
NEWPORT FAIR 38 28 67 CALM 30.32R  
BLOCK ISLAND FAIR 40 27 59 NW7 30.35  
SMITHFIELD FAIR 38 20 48 NW5 30.33R  
WESTERLY FAIR 42 23 46 VRB3 30.35R  

 
 
CTZALL-230000-  
CONNECTICUT  
 
CITY SKY/WX TMP DP RH WIND PRES REMARKS
 
BRADLEY INTL CLOUDY 36 23 59 NW9 30.37R WCI 29  
HARTFORD FAIR 39 21 48 NW6 30.38R  
BRIDGEPORT FAIR 40 22 48 N7 30.39R  
DANBURY FAIR 36 21 54 N7 30.39R WCI 30  
GROTON FAIR 39 20 46 NW9 30.36R  
NEW HAVEN FAIR 41 21 44 N8 30.38R  
CHESTER FAIR 37 19 48 NW6 30.36R  
MERIDEN FAIR 38 21 50 NW6 30.38R  
WILLIMANTIC FAIR 38 21 50 W7 30.36R  
OXFORD FAIR 35 21 56 NW7 30.37R WCI 29  

 
 
MEZ002-015-021-024-NHZ003-005-008-011-012-014-VTZ005-008-230000-  
NORTHERN NEW ENGLAND  
 
CITY SKY/WX TMP DP RH WIND PRES REMARKS
 
PORTLAND ME FAIR 34 26 72 CALM 30.33R  
BANGOR ME FAIR 29 15 56 NW8 30.30R WCI 21  
CONCORD NH FAIR 35 20 54 NW12 30.34R WCI 27  
MANCHESTER NH MOCLDY 39 19 44 NW7 30.33R  
NASHUA NH FAIR 38 21 50 NW5 30.35R  
PORTSMOUTH NH MOCLDY 37 18 45 W10 30.31R WCI 30  
JAFFREY NH FAIR 33 21 61 VRB3 30.32R  
KEENE NH FAIR 34 20 56 NW3 30.36R  
BURLINGTON VT MOCLDY 31 18 58 N5 30.41R WCI 26  
MT. WASHINGTON FOG 5 5 100 NW53 N/A VSB 1/8 WCI -25  

 
 
NYZ052-076-230000-  
EASTERN NEW YORK  
 
CITY SKY/WX TMP DP RH WIND PRES REMARKS
 
ALBANY MOCLDY 34 19 54 NW8 30.43R WCI 27  
NEW YORK CITY CLOUDY 41 22 46 NW12 30.39R  

 
 
ANZALL-230000-  
MARINE OBSERVATIONS  
 
STATION/POSITION TIME TEMP WIND PRES VSBY WAVE
 
AIR SEA DIR/SP/G HT/PER  
(UTC) (F) (DEG/KT/KT) (MB) (MI) (FT/S)  
BOSTON BUOY 2250 38 39 160/ 6/ 6 1026.8R 2/ 9  
BUZZARDS BAY 2200 39 220/ 13/ 14 1027.2R  
NANTUCKET SOUND 2300 36 35 180/ 4/ 4 1027.5  
MASS BAY-STELLWA 2204 37 38 180/ 6/ 6 1025.7R 1 7/8 2/ 8  
ISLE OF SHOALS 2300 40 300/ 15/ 16 1026.4R  
S OF BLOCK IS 2300 42 N/A 2/ 8  

 
   
.....................KEY......................
 
 
SKY/WX - SKY CONDITION/PRESENT WEATHER  
TMP - TEMPERATURE IN FAHRENHEIT  
DWPT - DEWPOINT IN FAHRENHEIT  
RH - RELATIVE HUMIDITY IN PERCENT  
WIND - DIRECTION AND SPEED IN MPH  
PRES - MEAN SEA LEVEL PRESSURE IN INCHES OF HG  
WCI - WIND CHILL INDEX  
VSB - VISIBILITY IN MILES  
HX - HEAT INDEX  
TC - TEMPERATURE IN CELSIUS  
VRB - VARIABLE WIND DIRECTION  
N/A - NOT AVAILABLE  
 
 
CLICK HERE TO GO TO PREVIOUS BULLETINS.

The Nexlab MA Page
The Nexlab RI Page
The Nexlab NH Page
The Nexlab CT Page Main Text Page